Time,TemperatureF,DewpointF,PressureIn,WindDirection,WindDirectionDegrees,WindSpeedMPH,WindSpeedGustMPH,Humidity,HourlyPrecipIn,Conditions,Clouds,dailyrainin,SoftwareType,DateUTC
2013-07-21 00:02:00,68.8,60.9,29.81,East,88,0.0,0.0,76,0.00,,,0.00,Wunderground v.1.15,2013-07-21 04:02:00,
2013-07-21 00:08:00,68.6,61.1,29.81,East,88,0.0,0.0,77,0.00,,,0.00,Wunderground v.1.15,2013-07-21 04:08:00,
2013-07-21 00:12:00,68.6,61.1,29.81,East,88,0.0,0.0,77,0.00,,,0.00,Wunderground v.1.15,2013-07-21 04:12:00,
2013-07-21 00:17:00,68.4,61.3,29.81,East,88,0.0,0.0,78,0.00,,,0.00,Wunderground v.1.15,2013-07-21 04:17:00,
2013-07-21 00:23:00,68.3,61.2,29.81,East,88,0.0,0.0,78,0.00,,,0.00,Wunderground v.1.15,2013-07-21 04:23:00,
2013-07-21 00:27:00,68.1,61.3,29.81,East,88,0.0,0.0,79,0.00,,,0.00,Wunderground v.1.15,2013-07-21 04:27:00,
2013-07-21 00:37:00,67.8,61.4,29.81,East,88,0.0,0.0,80,0.00,,,0.00,Wunderground v.1.15,2013-07-21 04:37:00,
2013-07-21 00:47:00,67.4,61.4,29.81,East,88,0.0,0.0,81,0.00,,,0.00,Wunderground v.1.15,2013-07-21 04:47:00,
2013-07-21 00:52:00,67.3,61.3,29.81,East,88,0.0,0.0,81,0.00,,,0.00,Wunderground v.1.15,2013-07-21 04:52:00,
2013-07-21 01:02:00,66.9,60.9,29.81,East,88,0.0,0.0,81,0.00,,,0.00,Wunderground v.1.15,2013-07-21 05:02:00,
2013-07-21 01:07:00,66.8,60.8,29.81,East,88,0.0,0.0,81,0.00,,,0.00,Wunderground v.1.15,2013-07-21 05:07:00,
2013-07-21 01:17:00,66.8,60.8,29.81,East,88,0.0,0.0,81,0.00,,,0.00,Wunderground v.1.15,2013-07-21 05:17:00,
2013-07-21 01:23:00,66.6,60.9,29.81,East,88,0.0,0.0,82,0.00,,,0.00,Wunderground v.1.15,2013-07-21 05:23:00,
2013-07-21 01:32:00,66.4,60.7,29.82,East,88,0.0,0.0,82,0.00,,,0.00,Wunderground v.1.15,2013-07-21 05:32:00,
2013-07-21 01:37:00,66.3,60.6,29.82,East,88,0.0,0.0,82,0.00,,,0.00,Wunderground v.1.15,2013-07-21 05:37:00,
2013-07-21 01:47:00,66.1,60.8,29.82,East,88,0.0,0.0,83,0.00,,,0.00,Wunderground v.1.15,2013-07-21 05:47:00,
2013-07-21 01:52:00,66.1,60.8,29.82,East,88,0.0,0.0,83,0.00,,,0.00,Wunderground v.1.15,2013-07-21 05:52:00,
2013-07-21 02:02:00,66.1,60.4,29.83,East,88,0.0,0.0,82,0.00,,,0.00,Wunderground v.1.15,2013-07-21 06:02:00,
2013-07-21 02:07:00,66.1,60.4,29.83,East,88,0.0,0.0,82,0.00,,,0.00,Wunderground v.1.15,2013-07-21 06:07:00,
2013-07-21 02:17:00,66.3,60.6,29.83,East,88,0.0,0.0,82,0.00,,,0.00,Wunderground v.1.15,2013-07-21 06:17:00,
2013-07-21 02:23:00,66.3,60.6,29.83,East,88,0.0,0.0,82,0.00,,,0.00,Wunderground v.1.15,2013-07-21 06:23:00,
2013-07-21 02:32:00,66.3,60.6,29.83,East,88,0.0,0.0,82,0.00,,,0.00,Wunderground v.1.15,2013-07-21 06:32:00,
2013-07-21 02:37:00,66.3,60.3,29.83,East,88,0.0,0.0,81,0.00,,,0.00,Wunderground v.1.15,2013-07-21 06:37:00,
2013-07-21 02:47:00,66.3,59.9,29.83,East,88,0.0,0.0,80,0.00,,,0.00,Wunderground v.1.15,2013-07-21 06:47:00,
2013-07-21 02:52:00,66.3,59.6,29.83,East,88,0.0,0.0,79,0.00,,,0.00,Wunderground v.1.15,2013-07-21 06:52:00,
2013-07-21 03:02:00,66.3,59.2,29.83,East,88,0.0,0.0,78,0.00,,,0.00,Wunderground v.1.15,2013-07-21 07:02:00,
2013-07-21 03:12:00,66.4,59.3,29.83,East,88,0.0,0.0,78,0.00,,,0.00,Wunderground v.1.15,2013-07-21 07:12:00,
2013-07-21 03:22:00,66.6,59.5,29.83,East,88,0.0,0.0,78,0.00,,,0.00,Wunderground v.1.15,2013-07-21 07:22:00,
2013-07-21 03:32:00,66.9,59.8,29.84,East,88,0.0,0.0,78,0.00,,,0.00,Wunderground v.1.15,2013-07-21 07:32:00,
2013-07-21 03:38:00,66.9,59.8,29.84,East,88,0.0,0.0,78,0.00,,,0.00,Wunderground v.1.15,2013-07-21 07:38:00,
2013-07-21 03:47:00,66.9,59.5,29.83,East,88,0.0,0.0,77,0.00,,,0.00,Wunderground v.1.15,2013-07-21 07:47:00,
2013-07-21 03:53:00,66.9,59.1,29.83,East,88,0.0,0.0,76,0.00,,,0.00,Wunderground v.1.15,2013-07-21 07:53:00,
2013-07-21 04:02:00,66.9,59.1,29.83,East,88,0.0,0.0,76,0.00,,,0.00,Wunderground v.1.15,2013-07-21 08:02:00,
2013-07-21 04:12:00,66.9,59.5,29.83,East,88,0.0,0.0,77,0.00,,,0.00,Wunderground v.1.15,2013-07-21 08:12:00,
2013-07-21 04:17:00,66.9,59.5,29.85,East,88,0.0,0.0,77,0.00,,,0.00,Wunderground v.1.15,2013-07-21 08:17:00,
2013-07-21 04:22:00,66.8,59.4,29.85,East,88,0.0,0.0,77,0.00,,,0.00,Wunderground v.1.15,2013-07-21 08:22:00,
2013-07-21 04:32:00,66.6,59.2,29.85,East,88,0.0,0.0,77,0.00,,,0.00,Wunderground v.1.15,2013-07-21 08:32:00,
2013-07-21 04:37:00,66.4,59.3,29.85,East,88,0.0,0.0,78,0.00,,,0.00,Wunderground v.1.15,2013-07-21 08:37:00,
2013-07-21 04:47:00,66.1,59.4,29.85,East,88,0.0,0.0,79,0.00,,,0.00,Wunderground v.1.15,2013-07-21 08:47:00,
2013-07-21 04:53:00,66.0,59.3,29.85,East,88,0.0,0.0,79,0.00,,,0.00,Wunderground v.1.15,2013-07-21 08:53:00,
2013-07-21 05:02:00,65.6,58.9,29.85,East,88,0.0,0.0,79,0.00,,,0.00,Wunderground v.1.15,2013-07-21 09:02:00,
2013-07-21 05:07:00,65.3,58.6,29.85,East,88,0.0,0.0,79,0.00,,,0.00,Wunderground v.1.15,2013-07-21 09:07:00,
2013-07-21 05:17:00,65.0,58.7,29.85,East,88,0.0,0.0,80,0.00,,,0.00,Wunderground v.1.15,2013-07-21 09:17:00,
2013-07-21 05:22:00,64.8,58.8,29.85,East,88,0.0,0.0,81,0.00,,,0.00,Wunderground v.1.15,2013-07-21 09:22:00,
2013-07-21 05:32:00,64.5,58.9,29.86,East,88,0.0,0.0,82,0.00,,,0.00,Wunderground v.1.15,2013-07-21 09:32:00,
2013-07-21 05:37:00,64.3,58.7,29.86,East,88,0.0,0.0,82,0.00,,,0.00,Wunderground v.1.15,2013-07-21 09:37:00,
2013-07-21 05:47:00,64.2,58.9,29.86,East,88,0.0,0.0,83,0.00,,,0.00,Wunderground v.1.15,2013-07-21 09:47:00,
2013-07-21 05:52:00,64.0,58.7,29.86,East,88,0.0,0.0,83,0.00,,,0.00,Wunderground v.1.15,2013-07-21 09:52:00,
2013-07-21 06:02:00,63.7,58.8,29.87,East,88,0.0,0.0,84,0.00,,,0.00,Wunderground v.1.15,2013-07-21 10:02:00,
2013-07-21 06:07:00,63.7,58.8,29.87,East,88,0.0,0.0,84,0.00,,,0.00,Wunderground v.1.15,2013-07-21 10:07:00,
2013-07-21 06:17:00,63.7,59.1,29.87,East,88,0.0,0.0,85,0.00,,,0.00,Wunderground v.1.15,2013-07-21 10:17:00,
2013-07-21 06:23:00,64.2,59.9,29.87,East,88,0.0,0.0,86,0.00,,,0.00,Wunderground v.1.15,2013-07-21 10:23:00,
2013-07-21 06:32:00,65.5,59.9,29.88,East,88,0.0,0.0,82,0.00,,,0.00,Wunderground v.1.15,2013-07-21 10:32:00,
2013-07-21 06:37:00,66.0,59.3,29.88,East,88,0.0,0.0,79,0.00,,,0.00,Wunderground v.1.15,2013-07-21 10:37:00,
2013-07-21 06:47:00,66.4,59.3,29.88,North,3,0.0,0.0,78,0.00,,,0.00,Wunderground v.1.15,2013-07-21 10:47:00,
2013-07-21 06:52:00,66.8,59.4,29.88,NNE,20,0.0,1.0,77,0.00,,,0.00,Wunderground v.1.15,2013-07-21 10:52:00,
2013-07-21 07:02:00,66.9,59.1,29.89,ENE,58,0.0,0.0,76,0.00,,,0.00,Wunderground v.1.15,2013-07-21 11:02:00,
2013-07-21 07:07:00,66.9,59.1,29.89,ENE,58,0.0,0.0,76,0.00,,,0.00,Wunderground v.1.15,2013-07-21 11:07:00,
2013-07-21 07:12:00,66.9,59.1,29.89,NE,56,0.0,0.0,76,0.00,,,0.00,Wunderground v.1.15,2013-07-21 11:12:00,
2013-07-21 07:17:00,66.9,59.1,29.90,North,8,0.0,0.0,76,0.00,,,0.00,Wunderground v.1.15,2013-07-21 11:17:00,
2013-07-21 07:23:00,67.1,59.3,29.90,North,8,0.0,0.0,76,0.00,,,0.00,Wunderground v.1.15,2013-07-21 11:23:00,
2013-07-21 07:32:00,67.1,59.3,29.90,North,8,0.0,0.0,76,0.00,,,0.00,Wunderground v.1.15,2013-07-21 11:32:00,
2013-07-21 07:37:00,67.1,59.3,29.90,North,8,0.0,0.0,76,0.00,,,0.00,Wunderground v.1.15,2013-07-21 11:37:00,
2013-07-21 07:47:00,66.9,59.1,29.90,NNE,31,0.0,0.0,76,0.00,,,0.00,Wunderground v.1.15,2013-07-21 11:47:00,
2013-07-21 07:52:00,66.9,59.5,29.90,NNE,31,0.0,0.0,77,0.00,,,0.00,Wunderground v.1.15,2013-07-21 11:52:00,
2013-07-21 08:02:00,67.3,59.5,29.91,North,359,0.0,0.0,76,0.00,,,0.00,Wunderground v.1.15,2013-07-21 12:02:00,
2013-07-21 08:07:00,67.6,59.8,29.91,North,359,0.0,0.0,76,0.00,,,0.00,Wunderground v.1.15,2013-07-21 12:07:00,
2013-07-21 08:12:00,67.6,59.4,29.91,North,359,0.0,0.0,75,0.00,,,0.00,Wunderground v.1.15,2013-07-21 12:12:00,
2013-07-21 08:17:00,67.8,59.2,29.91,SE,134,0.0,0.0,74,0.00,,,0.00,Wunderground v.1.15,2013-07-21 12:17:00,
2013-07-21 08:22:00,67.9,59.3,29.91,SE,134,0.0,0.0,74,0.00,,,0.00,Wunderground v.1.15,2013-07-21 12:22:00,
2013-07-21 08:32:00,67.6,59.0,29.91,NE,51,0.0,0.0,74,0.00,,,0.00,Wunderground v.1.15,2013-07-21 12:32:00,
2013-07-21 08:37:00,67.8,58.8,29.91,NE,55,0.0,0.0,73,0.00,,,0.00,Wunderground v.1.15,2013-07-21 12:37:00,
2013-07-21 08:47:00,67.8,58.8,29.92,NE,47,0.0,0.0,73,0.00,,,0.00,Wunderground v.1.15,2013-07-21 12:47:00,
2013-07-21 08:52:00,68.4,59.0,29.92,NE,47,0.0,0.0,72,0.00,,,0.00,Wunderground v.1.15,2013-07-21 12:52:00,
2013-07-21 09:02:00,69.3,59.1,29.92,ESE,114,0.0,0.0,70,0.00,,,0.00,Wunderground v.1.15,2013-07-21 13:02:00,
2013-07-21 09:08:00,69.6,59.0,29.92,NNE,30,0.0,0.0,69,0.00,,,0.00,Wunderground v.1.15,2013-07-21 13:08:00,
2013-07-21 09:17:00,69.9,58.9,29.92,NNE,30,0.0,2.0,68,0.00,,,0.00,Wunderground v.1.15,2013-07-21 13:17:00,
2013-07-21 09:22:00,69.9,58.4,29.92,ENE,72,0.0,0.0,67,0.00,,,0.00,Wunderground v.1.15,2013-07-21 13:22:00,
2013-07-21 09:32:00,70.4,58.9,29.93,East,100,0.0,0.0,67,0.00,,,0.00,Wunderground v.1.15,2013-07-21 13:32:00,
2013-07-21 09:37:00,70.1,58.6,29.93,NE,34,0.0,2.0,67,0.00,,,0.00,Wunderground v.1.15,2013-07-21 13:37:00,
2013-07-21 09:47:00,69.8,58.8,29.93,NE,51,0.0,0.0,68,0.00,,,0.00,Wunderground v.1.15,2013-07-21 13:47:00,
2013-07-21 09:53:00,70.1,59.0,29.93,ENE,66,0.0,0.0,68,0.00,,,0.00,Wunderground v.1.15,2013-07-21 13:53:00,
2013-07-21 10:02:00,70.6,59.1,29.93,East,80,0.0,3.0,67,0.00,,,0.00,Wunderground v.1.15,2013-07-21 14:02:00,
2013-07-21 10:08:00,70.3,58.8,29.93,ENE,66,0.0,3.0,67,0.00,,,0.00,Wunderground v.1.15,2013-07-21 14:08:00,
2013-07-21 10:17:00,70.4,58.9,29.93,NNE,25,0.0,0.0,67,0.00,,,0.00,Wunderground v.1.15,2013-07-21 14:17:00,
2013-07-21 10:22:00,70.6,58.7,29.93,East,88,0.0,1.0,66,0.00,,,0.00,Wunderground v.1.15,2013-07-21 14:22:00,
2013-07-21 10:32:00,70.9,59.4,29.93,ENE,76,0.0,0.0,67,0.00,,,0.00,Wunderground v.1.15,2013-07-21 14:32:00,
2013-07-21 10:37:00,70.6,58.3,29.93,NNE,21,0.0,0.0,65,0.00,,,0.00,Wunderground v.1.15,2013-07-21 14:37:00,
2013-07-21 10:47:00,70.6,58.7,29.93,SE,145,0.0,0.0,66,0.00,,,0.00,Wunderground v.1.15,2013-07-21 14:47:00,
2013-07-21 10:53:00,70.8,57.6,29.93,NE,42,0.0,0.0,63,0.00,,,0.00,Wunderground v.1.15,2013-07-21 14:53:00,
2013-07-21 11:02:00,71.1,58.3,29.94,East,79,0.0,0.0,64,0.00,,,0.00,Wunderground v.1.15,2013-07-21 15:02:00,
2013-07-21 11:08:00,71.6,58.3,29.94,North,1,0.0,0.0,63,0.00,,,0.00,Wunderground v.1.15,2013-07-21 15:08:00,
2013-07-21 11:17:00,71.8,58.5,29.94,North,0,0.0,0.0,63,0.00,,,0.00,Wunderground v.1.15,2013-07-21 15:17:00,
2013-07-21 11:22:00,71.6,57.9,29.94,NNW,347,0.0,3.0,62,0.00,,,0.00,Wunderground v.1.15,2013-07-21 15:22:00,
2013-07-21 11:32:00,71.8,58.5,29.94,SSE,150,1.0,1.0,63,0.00,,,0.00,Wunderground v.1.15,2013-07-21 15:32:00,
2013-07-21 11:37:00,72.1,58.4,29.94,North,0,0.0,1.0,62,0.00,,,0.00,Wunderground v.1.15,2013-07-21 15:37:00,
2013-07-21 11:47:00,72.0,58.3,29.95,East,95,0.0,0.0,62,0.00,,,0.00,Wunderground v.1.15,2013-07-21 15:47:00,
2013-07-21 11:53:00,72.3,59.0,29.95,SE,126,0.0,0.0,63,0.00,,,0.00,Wunderground v.1.15,2013-07-21 15:53:00,
2013-07-21 12:02:00,72.3,58.5,29.95,NE,48,1.0,1.0,62,0.00,,,0.00,Wunderground v.1.15,2013-07-21 16:02:00,
2013-07-21 12:08:00,72.3,58.5,29.95,NE,52,0.0,1.0,62,0.00,,,0.00,Wunderground v.1.15,2013-07-21 16:08:00,
2013-07-21 12:17:00,72.7,58.5,29.95,SE,126,0.0,1.0,61,0.00,,,0.00,Wunderground v.1.15,2013-07-21 16:17:00,
2013-07-21 12:22:00,72.8,58.6,29.95,East,97,0.0,0.0,61,0.00,,,0.00,Wunderground v.1.15,2013-07-21 16:22:00,
2013-07-21 12:32:00,72.1,58.8,29.95,NNE,18,1.0,1.0,63,0.00,,,0.00,Wunderground v.1.15,2013-07-21 16:32:00,
2013-07-21 12:37:00,72.0,59.2,29.95,North,0,2.0,2.0,64,0.00,,,0.00,Wunderground v.1.15,2013-07-21 16:37:00,
2013-07-21 12:47:00,72.1,59.2,29.94,North,359,1.0,2.0,64,0.00,,,0.00,Wunderground v.1.15,2013-07-21 16:47:00,
2013-07-21 12:52:00,72.0,59.2,29.94,North,354,1.0,1.0,64,0.00,,,0.00,Wunderground v.1.15,2013-07-21 16:52:00,
2013-07-21 13:02:00,72.0,59.2,29.94,North,7,2.0,2.0,64,0.00,,,0.00,Wunderground v.1.15,2013-07-21 17:02:00,
2013-07-21 13:08:00,72.1,59.2,29.94,NE,52,0.0,2.0,64,0.00,,,0.00,Wunderground v.1.15,2013-07-21 17:08:00,
2013-07-21 13:17:00,72.3,58.5,29.94,North,359,1.0,1.0,62,0.00,,,0.00,Wunderground v.1.15,2013-07-21 17:17:00,
2013-07-21 13:23:00,72.5,59.2,29.94,East,96,1.0,1.0,63,0.00,,,0.00,Wunderground v.1.15,2013-07-21 17:23:00,
2013-07-21 13:32:00,72.5,59.2,29.94,NNE,13,1.0,1.0,63,0.00,,,0.00,Wunderground v.1.15,2013-07-21 17:32:00,
2013-07-21 13:37:00,72.5,59.2,29.94,NNE,30,1.0,1.0,63,0.00,,,0.00,Wunderground v.1.15,2013-07-21 17:37:00,
2013-07-21 13:47:00,72.7,58.9,29.95,North,357,1.0,1.0,62,0.00,,,0.00,Wunderground v.1.15,2013-07-21 17:47:00,
2013-07-21 13:52:00,72.8,59.0,29.95,North,8,1.0,1.0,62,0.00,,,0.00,Wunderground v.1.15,2013-07-21 17:52:00,
2013-07-21 14:02:00,73.2,58.9,29.94,ESE,114,0.0,1.0,61,0.00,,,0.00,Wunderground v.1.15,2013-07-21 18:02:00,
2013-07-21 14:12:00,73.2,60.3,29.94,ESE,102,1.0,2.0,64,0.00,,,0.00,Wunderground v.1.15,2013-07-21 18:12:00,
2013-07-21 14:23:00,73.0,58.3,29.94,East,96,1.0,5.0,60,0.00,,,0.00,Wunderground v.1.15,2013-07-21 18:23:00,
2013-07-21 14:32:00,73.2,58.5,29.93,North,4,0.0,5.0,60,0.00,,,0.00,Wunderground v.1.15,2013-07-21 18:32:00,
2013-07-21 14:37:00,73.5,58.8,29.93,North,8,0.0,0.0,60,0.00,,,0.00,Wunderground v.1.15,2013-07-21 18:37:00,
2013-07-21 14:47:00,74.6,59.3,29.93,East,83,0.0,1.0,59,0.00,,,0.00,Wunderground v.1.15,2013-07-21 18:47:00,
2013-07-21 14:52:00,74.2,58.9,29.93,North,359,1.0,5.0,59,0.00,,,0.00,Wunderground v.1.15,2013-07-21 18:52:00,
2013-07-21 15:02:00,73.9,58.2,29.93,SE,145,1.0,1.0,58,0.00,,,0.00,Wunderground v.1.15,2013-07-21 19:02:00,
2013-07-21 15:07:00,74.0,59.2,29.93,East,85,1.0,1.0,60,0.00,,,0.00,Wunderground v.1.15,2013-07-21 19:07:00,
2013-07-21 15:17:00,74.2,58.5,29.92,ESE,110,1.0,1.0,58,0.00,,,0.00,Wunderground v.1.15,2013-07-21 19:17:00,
2013-07-21 15:23:00,73.9,57.7,29.92,NNW,346,1.0,1.0,57,0.00,,,0.00,Wunderground v.1.15,2013-07-21 19:23:00,
2013-07-21 15:32:00,74.0,57.3,29.92,ENE,72,1.0,1.0,56,0.00,,,0.00,Wunderground v.1.15,2013-07-21 19:32:00,
2013-07-21 15:37:00,74.2,58.0,29.92,North,0,1.0,1.0,57,0.00,,,0.00,Wunderground v.1.15,2013-07-21 19:37:00,
2013-07-21 15:47:00,74.0,58.3,29.92,ENE,59,0.0,1.0,58,0.00,,,0.00,Wunderground v.1.15,2013-07-21 19:47:00,
2013-07-21 15:52:00,73.9,57.7,29.92,ENE,76,0.0,0.0,57,0.00,,,0.00,Wunderground v.1.15,2013-07-21 19:52:00,
2013-07-21 16:02:00,73.3,57.1,29.92,ENE,61,1.0,1.0,57,0.00,,,0.00,Wunderground v.1.15,2013-07-21 20:02:00,
2013-07-21 16:07:00,72.8,57.2,29.92,North,0,1.0,1.0,58,0.00,,,0.00,Wunderground v.1.15,2013-07-21 20:07:00,
2013-07-21 16:17:00,72.3,56.2,29.92,North,6,1.0,5.0,57,0.00,,,0.00,Wunderground v.1.15,2013-07-21 20:17:00,
2013-07-21 16:22:00,72.7,57.5,29.92,North,6,1.0,1.0,59,0.00,,,0.00,Wunderground v.1.15,2013-07-21 20:22:00,
2013-07-21 16:32:00,72.7,57.1,29.91,NE,51,0.0,0.0,58,0.00,,,0.00,Wunderground v.1.15,2013-07-21 20:32:00,
2013-07-21 16:37:00,72.5,56.9,29.91,NE,51,0.0,0.0,58,0.00,,,0.00,Wunderground v.1.15,2013-07-21 20:37:00,
2013-07-21 16:47:00,72.1,56.0,29.91,North,356,0.0,1.0,57,0.00,,,0.00,Wunderground v.1.15,2013-07-21 20:47:00,
2013-07-21 16:52:00,72.0,56.4,29.91,ENE,66,0.0,0.0,58,0.00,,,0.00,Wunderground v.1.15,2013-07-21 20:52:00,
2013-07-21 17:02:00,72.1,57.0,29.91,ENE,66,0.0,0.0,59,0.00,,,0.00,Wunderground v.1.15,2013-07-21 21:02:00,
2013-07-21 17:08:00,72.3,57.6,29.91,NE,54,0.0,0.0,60,0.00,,,0.00,Wunderground v.1.15,2013-07-21 21:08:00,
2013-07-21 17:17:00,72.3,56.7,29.91,East,88,0.0,0.0,58,0.00,,,0.00,Wunderground v.1.15,2013-07-21 21:17:00,
2013-07-21 17:23:00,72.7,57.1,29.91,East,92,0.0,1.0,58,0.00,,,0.00,Wunderground v.1.15,2013-07-21 21:23:00,
2013-07-21 17:32:00,72.8,56.7,29.91,East,92,0.0,0.0,57,0.00,,,0.00,Wunderground v.1.15,2013-07-21 21:32:00,
2013-07-21 17:37:00,72.8,57.2,29.91,East,92,0.0,0.0,58,0.00,,,0.00,Wunderground v.1.15,2013-07-21 21:37:00,
2013-07-21 17:47:00,72.8,56.7,29.91,East,95,0.0,0.0,57,0.00,,,0.00,Wunderground v.1.15,2013-07-21 21:47:00,
2013-07-21 17:53:00,72.5,57.4,29.91,East,95,0.0,0.0,59,0.00,,,0.00,Wunderground v.1.15,2013-07-21 21:53:00,
2013-07-21 18:02:00,72.3,56.7,29.90,East,95,0.0,0.0,58,0.00,,,0.00,Wunderground v.1.15,2013-07-21 22:02:00,
2013-07-21 18:08:00,72.0,57.4,29.90,East,95,0.0,0.0,60,0.00,,,0.00,Wunderground v.1.15,2013-07-21 22:08:00,
2013-07-21 18:17:00,71.8,57.2,29.90,NE,37,0.0,0.0,60,0.00,,,0.00,Wunderground v.1.15,2013-07-21 22:17:00,
2013-07-21 18:22:00,71.8,57.2,29.90,NE,37,0.0,0.0,60,0.00,,,0.00,Wunderground v.1.15,2013-07-21 22:22:00,
2013-07-21 18:32:00,71.8,56.7,29.90,NE,37,0.0,0.0,59,0.00,,,0.00,Wunderground v.1.15,2013-07-21 22:32:00,
2013-07-21 18:37:00,71.8,56.7,29.90,NE,37,0.0,0.0,59,0.00,,,0.00,Wunderground v.1.15,2013-07-21 22:37:00,
2013-07-21 18:47:00,71.8,56.7,29.91,NE,37,0.0,0.0,59,0.00,,,0.00,Wunderground v.1.15,2013-07-21 22:47:00,
2013-07-21 18:53:00,71.8,56.2,29.91,NE,37,0.0,0.0,58,0.00,,,0.00,Wunderground v.1.15,2013-07-21 22:53:00,
2013-07-21 19:02:00,71.6,55.6,29.90,NE,37,0.0,0.0,57,0.00,,,0.00,Wunderground v.1.15,2013-07-21 23:02:00,
2013-07-21 19:08:00,71.3,55.8,29.90,NE,37,0.0,0.0,58,0.00,,,0.00,Wunderground v.1.15,2013-07-21 23:08:00,
2013-07-21 19:17:00,70.9,55.4,29.91,NE,37,0.0,0.0,58,0.00,,,0.00,Wunderground v.1.15,2013-07-21 23:17:00,
2013-07-21 19:23:00,70.8,56.2,29.91,NE,37,0.0,0.0,60,0.00,,,0.00,Wunderground v.1.15,2013-07-21 23:23:00,
2013-07-21 19:32:00,70.4,55.4,29.91,NE,37,0.0,0.0,59,0.00,,,0.00,Wunderground v.1.15,2013-07-21 23:32:00,
2013-07-21 19:37:00,70.3,55.3,29.91,NE,37,0.0,0.0,59,0.00,,,0.00,Wunderground v.1.15,2013-07-21 23:37:00,
2013-07-21 19:47:00,70.1,55.6,29.90,NE,37,0.0,0.0,60,0.00,,,0.00,Wunderground v.1.15,2013-07-21 23:47:00,
2013-07-21 19:52:00,69.9,56.3,29.90,NE,37,0.0,0.0,62,0.00,,,0.00,Wunderground v.1.15,2013-07-21 23:52:00,
2013-07-21 20:02:00,69.8,55.7,29.90,NE,37,0.0,0.0,61,0.00,,,0.00,Wunderground v.1.15,2013-07-22 00:02:00,
2013-07-21 20:07:00,69.6,56.0,29.90,NE,37,0.0,0.0,62,0.00,,,0.00,Wunderground v.1.15,2013-07-22 00:07:00,
2013-07-21 20:12:00,69.6,56.0,29.90,NE,37,0.0,0.0,62,0.00,,,0.00,Wunderground v.1.15,2013-07-22 00:12:00,
2013-07-21 20:23:00,69.4,56.7,29.91,NE,37,0.0,0.0,64,0.00,,,0.00,Wunderground v.1.15,2013-07-22 00:23:00,
2013-07-21 20:32:00,69.1,56.0,29.91,NE,37,0.0,0.0,63,0.00,,,0.00,Wunderground v.1.15,2013-07-22 00:32:00,
2013-07-21 20:38:00,68.8,56.1,29.91,NE,37,0.0,0.0,64,0.00,,,0.00,Wunderground v.1.15,2013-07-22 00:38:00,
2013-07-21 20:47:00,68.4,55.7,29.90,NE,37,0.0,0.0,64,0.00,,,0.00,Wunderground v.1.15,2013-07-22 00:47:00,
2013-07-21 20:52:00,68.1,55.9,29.90,NE,37,0.0,0.0,65,0.00,,,0.00,Wunderground v.1.15,2013-07-22 00:52:00,
2013-07-21 21:02:00,67.4,55.6,29.91,NE,37,0.0,0.0,66,0.00,,,0.00,Wunderground v.1.15,2013-07-22 01:02:00,
2013-07-21 21:07:00,67.3,55.5,29.91,NE,37,0.0,0.0,66,0.00,,,0.00,Wunderground v.1.15,2013-07-22 01:07:00,
2013-07-21 21:17:00,66.9,55.6,29.91,NE,37,0.0,0.0,67,0.00,,,0.00,Wunderground v.1.15,2013-07-22 01:17:00,
2013-07-21 21:22:00,66.6,55.3,29.91,NE,37,0.0,0.0,67,0.00,,,0.00,Wunderground v.1.15,2013-07-22 01:22:00,
2013-07-21 21:32:00,66.3,55.4,29.92,NE,37,0.0,0.0,68,0.00,,,0.00,Wunderground v.1.15,2013-07-22 01:32:00,
2013-07-21 21:37:00,66.1,55.2,29.92,NE,37,0.0,0.0,68,0.00,,,0.00,Wunderground v.1.15,2013-07-22 01:37:00,
2013-07-21 21:47:00,65.8,55.3,29.92,NE,37,0.0,0.0,69,0.00,,,0.00,Wunderground v.1.15,2013-07-22 01:47:00,
2013-07-21 21:52:00,65.6,55.5,29.92,NE,37,0.0,0.0,70,0.00,,,0.00,Wunderground v.1.15,2013-07-22 01:52:00,
2013-07-21 22:02:00,65.3,56.0,29.92,NE,37,0.0,0.0,72,0.00,,,0.00,Wunderground v.1.15,2013-07-22 02:02:00,
2013-07-21 22:12:00,65.2,56.3,29.92,NE,37,0.0,0.0,73,0.00,,,0.00,Wunderground v.1.15,2013-07-22 02:12:00,
2013-07-21 22:23:00,64.7,55.8,29.93,NE,37,0.0,0.0,73,0.00,,,0.00,Wunderground v.1.15,2013-07-22 02:23:00,
2013-07-21 22:32:00,64.5,56.0,29.93,NE,37,0.0,0.0,74,0.00,,,0.00,Wunderground v.1.15,2013-07-22 02:32:00,
2013-07-21 22:37:00,64.3,55.8,29.93,NE,37,0.0,0.0,74,0.00,,,0.00,Wunderground v.1.15,2013-07-22 02:37:00,
2013-07-21 22:47:00,64.2,55.7,29.93,NE,37,0.0,0.0,74,0.00,,,0.00,Wunderground v.1.15,2013-07-22 02:47:00,
2013-07-21 22:52:00,64.0,55.9,29.93,NE,37,0.0,0.0,75,0.00,,,0.00,Wunderground v.1.15,2013-07-22 02:52:00,
2013-07-21 23:02:00,63.9,56.2,29.93,NE,37,0.0,0.0,76,0.00,,,0.00,Wunderground v.1.15,2013-07-22 03:02:00,
2013-07-21 23:12:00,63.5,56.2,29.93,NE,37,0.0,0.0,77,0.00,,,0.00,Wunderground v.1.15,2013-07-22 03:12:00,
2013-07-21 23:23:00,63.2,56.2,29.93,NE,37,0.0,0.0,78,0.00,,,0.00,Wunderground v.1.15,2013-07-22 03:23:00,
2013-07-21 23:32:00,62.9,55.9,29.93,NE,37,0.0,0.0,78,0.00,,,0.00,Wunderground v.1.15,2013-07-22 03:32:00,
2013-07-21 23:38:00,62.7,56.1,29.93,NE,37,0.0,0.0,79,0.00,,,0.00,Wunderground v.1.15,2013-07-22 03:38:00,
2013-07-21 23:47:00,62.7,56.4,29.93,NE,37,0.0,0.0,80,0.00,,,0.00,Wunderground v.1.15,2013-07-22 03:47:00,
2013-07-21 23:53:00,62.6,56.3,29.93,NE,37,0.0,0.0,80,0.00,,,0.00,Wunderground v.1.15,2013-07-22 03:53:00,